Погода в Сорокабе

Бразилия     23°29′50″S   47°27′47″W
темп.,
°C
ветер,
м/с
пор.,
м/с
влажн.,
%
обл.,
%
осадки,
мм/ч
давл.,
гПа
погр.,
м
28 сентября, вт
вт2800:00+20вюв25510 0.0 1017136
03:00+18ююв12540 0.0 101650
06:00+18юв11520 0.0 101711
09:00+26всв12280 0.0 1018558
12:00+32зсз11210 0.0 10151976
15:00+33зюз32180 0.0 10112348
18:00+28юв58341 0.0 1011307
21:00+24вюв49405 0.0 1012202
29 сентября, ср
ср2900:00+22в3640100 0.0 1012141
03:00+22юв124058 0.0 101140
06:00+21ю344814 0.0 1013144
09:00+25юв334499 0.0 1014680
12:00+30юв2334100 0.0 10121346
15:00+31юз653544 0.0 10091293
18:00+26ю694870 0.0 1010396
21:00+21юв487538 0.0 1013242
30 сентября, чт
чт3000:00+18ююв4107747 0.0 1014386
03:00+18юв410795 0.0 1013412
06:00+17юв49836 0.0 1014369
09:00+24юв56545 0.0 1014781
12:00+30юв43375 0.0 10121527
15:00+32ююв423212 0.0 10081813
18:00+24ююв610595 0.0 1010464
21:00+19юв48765 0.0 1012264
1 октября, пт
пт100:00+18ююв348298 0.0 1012131
03:00+18юв24827 0.0 101198
06:00+18юв118192 0.0 101140
09:00+26вюв344899 0.0 1011622
12:00+26юз7652100 0.2 1011797
15:00+23ю7865100 0.5 1009638
18:00+21вюв487524 0.4 1009293
21:00+20ю4880100 0.5 1012330
2 октября, сб
сб200:00+19ююв388484 0.1 1012216
03:00+17ююв3791100 0.4 1010199
06:00+18ююв2388100 0.8 101172
09:00+25вюв3459100 1.6 1012486
12:00+29юв4443100 0.1 10101415
15:00+28юв7648100 0.1 10081198
18:00+20ююв61279100 0.4 1010576
21:00+19вюв6128789 1.6 1012595